TimeMDT,TemperatureF,Dew PointF,Humidity,Sea Level PressureIn,VisibilityMPH,Wind Direction,Wind SpeedMPH,Gust SpeedMPH,PrecipitationIn,Events,Conditions,WindDirDegrees,DateUTC
12:53 AM,33.1,30.0,89,30.09,10.0,ENE,5.8,-,N/A,,Clear,70,2013-09-29 06:53:00
1:53 AM,32.0,28.9,88,30.09,10.0,Calm,Calm,-,N/A,,Clear,0,2013-09-29 07:53:00
2:53 AM,30.9,28.0,89,30.08,10.0,ENE,6.9,-,N/A,,Clear,70,2013-09-29 08:53:00
3:53 AM,30.9,28.9,92,30.05,10.0,ENE,5.8,-,N/A,,Clear,60,2013-09-29 09:53:00
4:53 AM,28.9,27.0,92,30.04,10.0,ENE,8.1,-,N/A,,Clear,60,2013-09-29 10:53:00
5:53 AM,30.0,27.0,88,30.02,10.0,Calm,Calm,-,N/A,,Clear,0,2013-09-29 11:53:00
6:53 AM,28.0,25.0,88,30.05,10.0,NE,3.5,-,N/A,,Clear,40,2013-09-29 12:53:00
7:53 AM,28.9,26.1,89,30.07,10.0,Calm,Calm,-,N/A,,Clear,0,2013-09-29 13:53:00
8:53 AM,37.9,30.9,76,30.05,10.0,Calm,Calm,-,N/A,,Overcast,0,2013-09-29 14:53:00
9:53 AM,41.0,30.9,67,30.05,10.0,Calm,Calm,-,N/A,,Scattered Clouds,0,2013-09-29 15:53:00
10:53 AM,46.0,30.0,54,30.01,10.0,Calm,Calm,-,N/A,,Overcast,0,2013-09-29 16:53:00
11:53 AM,55.0,28.9,37,29.96,10.0,SSW,9.2,-,N/A,,Mostly Cloudy,200,2013-09-29 17:53:00
12:20 PM,59.0,26.6,29,30.06,10.0,West,23.0,29.9,N/A,,Scattered Clouds,270,2013-09-29 18:20:00
12:53 PM,60.1,28.0,30,29.91,10.0,West,19.6,27.6,N/A,,Partly Cloudy,270,2013-09-29 18:53:00
1:53 PM,62.1,28.9,29,29.88,10.0,West,21.9,31.1,N/A,,Partly Cloudy,270,2013-09-29 19:53:00
2:53 PM,59.0,28.0,31,29.88,10.0,West,20.7,31.1,N/A,,Scattered Clouds,280,2013-09-29 20:53:00
3:53 PM,57.9,27.0,31,29.88,10.0,West,20.7,50.6,N/A,,Overcast,280,2013-09-29 21:53:00
4:53 PM,54.0,28.0,37,29.94,10.0,West,26.5,36.8,N/A,,Overcast,270,2013-09-29 22:53:00
5:53 PM,53.1,28.9,40,29.94,10.0,West,23.0,27.6,N/A,,Overcast,260,2013-09-29 23:53:00
6:53 PM,51.1,30.9,46,29.96,10.0,WSW,6.9,-,N/A,,Overcast,240,2013-09-30 00:53:00
7:53 PM,50.0,30.9,48,29.96,10.0,SSE,4.6,-,N/A,,Overcast,160,2013-09-30 01:53:00
8:53 PM,48.9,32.0,52,29.92,10.0,South,6.9,-,N/A,,Overcast,190,2013-09-30 02:53:00
9:53 PM,48.0,33.1,56,29.91,10.0,SSW,6.9,-,N/A,,Overcast,200,2013-09-30 03:53:00
10:53 PM,45.0,32.0,60,29.90,10.0,NNW,3.5,-,N/A,,Mostly Cloudy,340,2013-09-30 04:53:00
11:53 PM,44.1,33.1,65,29.85,10.0,Calm,Calm,-,N/A,,Overcast,0,2013-09-30 05:53:00